Location: Heiligenberg
(48.5381°N, 7.3897°E)
Time: 01:44:18
(UTC+00:00)

Gblst 52 Del rocket - Pass Details

Date: 26 May 2022
Orbit: 805 x 1365 km, 51.5° (Epoch: 26 June)

Event Time Altitude Azimuth Distance (km) Brightness Sun altitude
Rises 23:58:13 0° 258° (WSW) 3,687 7.3 -20.0°
Reaches altitude 10° 00:00:58 10° 260° (W) 2,660 6.6 -20.0°
Maximum altitude 00:07:09 75° 345° (NNW) 898 4.4 -19.8°
Drops below altitude 10° 00:12:45 10° 72° (ENE) 2,419 6.9 -19.6°
Sets 00:15:09 0° 74° (ENE) 3,330 7.7 -19.6°
